Location: Newark
(54.8972°N, 99.8189°W)
Time: 19:49:46
(UTC+00:00)

SR - Visible Passes

Search period start: 22 November 2019 00:00
Search period end: 02 December 2019 00:00
Orbit: 573 x 882 km, 66.7° (Epoch: 21 November)

Date Brightness Start Highest point End Pass type
(mag) Time Alt. Az. Time Alt. Az. Time Alt. Az.
22 Nov ? 01:40:00 10° NW 01:44:56 27° N 01:45:06 27° N visible
22 Nov ? 03:22:44 10° NW 03:24:30 19° NNW 03:24:30 19° NNW visible
22 Nov ? 23:05:44 10° W 23:10:59 37° NNW 23:16:28 10° NE visible
23 Nov ? 00:49:48 10° WNW 00:54:39 26° N 00:56:43 22° NNE visible
23 Nov ? 02:32:57 10° NW 02:36:07 27° NNW 02:36:07 27° NNW visible
23 Nov ? 04:15:16 10° NW 04:15:31 11° NW 04:15:31 11° NW visible
23 Nov ? 23:59:29 10° WNW 00:04:23 27° N 00:08:21 14° NE visible
24 Nov ? 01:43:04 10° NW 01:47:45 29° N 01:47:45 29° N visible
24 Nov ? 03:25:33 10° NW 03:27:09 19° NW 03:27:09 19° NW visible
24 Nov ? 23:09:05 10° W 23:14:09 31° NNW 23:19:25 10° NE visible
25 Nov ? 00:53:00 10° NW 00:57:57 27° N 00:59:24 24° NNE visible
25 Nov ? 02:35:49 10° NW 02:38:48 28° NNW 02:38:48 28° NNW visible
25 Nov ? 04:18:05 10° NW 04:18:12 11° NW 04:18:12 11° NW visible
26 Nov ? 00:02:48 10° WNW 00:07:41 26° N 00:11:03 16° NE visible
26 Nov ? 01:46:01 10° NW 01:50:28 33° N 01:50:28 33° N visible
26 Nov ? 03:28:20 10° NW 03:29:52 19° NW 03:29:52 19° NW visible
26 Nov ? 23:12:29 10° WNW 23:17:24 28° N 23:22:28 10° NE visible
27 Nov ? 00:56:06 10° NW 01:01:13 29° NNE 01:02:08 28° NNE visible
27 Nov ? 02:38:37 10° NW 02:41:33 29° NNW 02:41:33 29° NNW visible
28 Nov ? 00:06:02 10° NW 00:10:58 27° N 00:13:50 19° NE visible
28 Nov ? 01:48:52 10° NW 01:53:15 38° N 01:53:15 38° N visible
28 Nov ? 03:31:09 10° NW 03:32:39 18° NW 03:32:39 18° NW visible
28 Nov ? 23:15:49 10° WNW 23:20:42 26° N 23:25:34 10° NE visible
29 Nov ? 00:59:03 10° NW 01:04:26 34° NNE 01:04:58 33° NNE visible
29 Nov ? 02:41:24 10° NW 02:44:23 31° NW 02:44:23 31° NW visible
30 Nov ? 00:09:08 10° NW 00:14:15 29° NNE 00:16:44 22° NE visible
30 Nov ? 01:51:41 10° NW 01:56:08 45° N 01:56:08 45° N visible
30 Nov ? 03:34:03 10° NW 03:35:33 18° NW 03:35:33 18° NW visible
30 Nov ? 23:19:04 10° NW 23:23:59 26° N 23:28:31 12° ENE visible
01 Dec ? 01:01:57 10° NW 01:07:35 41° NNE 01:07:56 41° NE visible
01 Dec ? 02:44:14 10° NW 02:47:21 32° NW 02:47:21 32° NW visible
